Home > Weather > Charlotte > Past weeks

Flag for U.S.A. Weather for the Past 2 Weeks in Charlotte, North Carolina, U.S.A.

Now
27 °F

Overcast.


Feels Like: 19 °F
Forecast: 18 / 35 °F
Wind: 8 mph from East

Location: Charlotte / Douglas International Airport

Current Time: Feb 14, 2016 at 3:01:09 PM

Latest Report: Feb 14, 2016 at 1:52 PM


Visibility: 10 mi

Pressure: 30.45 "Hg

Humidity: 25%

Dew point: -4 °F

Location of CharlotteLocation

Historic Weather in Charlotte — Graph

°F

Charlotte Temperature Yesterday

Maximum temperature yesterday: 40 °F (at 12:52 PM)
Minimum temperature yesterday: 22 °F (at 11:52 PM)
Average temperature yesterday: 33 °F

High & Low Weather Summary for the Past Weeks

 TemperatureHumidityPressure
High71 °F (Feb 1, 1:52 PM)97% (Feb 2, 4:52 AM)30.53 "Hg (Feb 2, 4:52 AM)
Low20 °F (Feb 11, 4:52 AM)18% (Feb 13, 3:52 PM)29.65 "Hg (Feb 8, 3:52 PM)
Average43 °F54%30.07 "Hg
* Reported Jan 30 1:52 PM — Feb 14 1:52 PM, Charlotte, Weather by CustomWeather, © 2016

Note: Actual official high and low records may vary slightly from our data, if they occured in-between our weather recording intervals... More about our weather records

Advertising

Charlotte Weather History for the Previous 24 Hours

 ConditionsComfort  
Time TempWeatherWind HumidityBarometerVisibility
1:52 PM
Sun, Feb 14
27 °FOvercast.8 mph25%30.45 "Hg10 mi
12:52 PM27 °FOvercast.8 mph27%30.49 "Hg10 mi
11:52 AM26 °FOvercast.7 mph28%30.52 "Hg10 mi
10:52 AM26 °FOvercast.7 mph29%30.53 "Hg10 mi
9:52 AM24 °FMostly cloudy.5 mph32%30.53 "Hg10 mi
8:52 AM23 °FMostly cloudy.12 mph33%30.52 "Hg10 mi
7:52 AM22 °FBroken clouds.8 mph36%30.51 "Hg10 mi
6:52 AM21 °FPartly cloudy.6 mph38%30.48 "Hg10 mi
5:52 AM22 °FPassing clouds.7 mph38%30.46 "Hg10 mi
4:52 AM21 °FPassing clouds.6 mph40%30.46 "Hg10 mi
3:52 AM21 °FPassing clouds.7 mph40%30.43 "Hg10 mi
2:52 AM21 °FPassing clouds.6 mph41%30.42 "Hg10 mi
1:52 AM21 °FPassing clouds.7 mph40%30.42 "Hg10 mi
12:52 AM23 °FClear.10 mph36%30.41 "Hg10 mi
11:52 PM
Sat, Feb 13
22 °FClear.5 mph40%30.42 "Hg10 mi
10:52 PM25 °FClear.8 mph33%30.41 "Hg10 mi
9:52 PM27 °FClear.9 mph31%30.42 "Hg10 mi
8:52 PM28 °FClear.9 mph30%30.41 "Hg10 mi
7:52 PM30 °FClear.9 mph27%30.40 "Hg10 mi
6:52 PM32 °FPassing clouds.9 mph27%30.36 "Hg10 mi
5:52 PM35 °FSunny.8 mph23%30.33 "Hg10 mi
4:52 PM39 °FSunny.8 mph20%30.30 "Hg10 mi
3:52 PM40 °FSunny.9 mph18%30.29 "Hg10 mi
Weather by CustomWeather, © 2016

See weather overviewHow to use our weather pages